Year,Month,Day,Hour,Minute,Value (Times are PST for insolation in W/m^2)
2011,07,22,00,00,0.00
2011,07,22,00,01,0.00
2011,07,22,00,02,0.00
2011,07,22,00,03,0.00
2011,07,22,00,04,0.00
2011,07,22,00,05,0.00
2011,07,22,00,06,0.00
2011,07,22,00,07,0.00
2011,07,22,00,08,0.00
2011,07,22,00,09,0.00
2011,07,22,00,10,0.00
2011,07,22,00,11,0.00
2011,07,22,00,12,0.00
2011,07,22,00,13,0.00
2011,07,22,00,14,0.00
2011,07,22,00,15,0.00
2011,07,22,00,16,0.00
2011,07,22,00,17,0.00
2011,07,22,00,18,0.00
2011,07,22,00,19,0.00
2011,07,22,00,20,0.00
2011,07,22,00,21,0.00
2011,07,22,00,22,0.00
2011,07,22,00,23,0.00
2011,07,22,00,24,0.00
2011,07,22,00,25,0.00
2011,07,22,00,26,0.00
2011,07,22,00,27,0.00
2011,07,22,00,28,0.00
2011,07,22,00,29,0.00
2011,07,22,00,30,0.00
2011,07,22,00,31,0.00
2011,07,22,00,32,0.00
2011,07,22,00,33,0.00
2011,07,22,00,34,0.00
2011,07,22,00,35,0.00
2011,07,22,00,36,0.00
2011,07,22,00,37,0.00
2011,07,22,00,38,0.00
2011,07,22,00,39,0.00
2011,07,22,00,40,0.00
2011,07,22,00,41,0.00
2011,07,22,00,42,0.00
2011,07,22,00,43,0.00
2011,07,22,00,44,0.00
2011,07,22,00,45,0.00
2011,07,22,00,46,0.00
2011,07,22,00,47,0.00
2011,07,22,00,48,0.00
2011,07,22,00,49,0.00
2011,07,22,00,50,0.00
2011,07,22,00,51,0.00
2011,07,22,00,52,0.00
2011,07,22,00,53,0.00
2011,07,22,00,54,0.00
2011,07,22,00,55,0.00
2011,07,22,00,56,0.00
2011,07,22,00,57,0.00
2011,07,22,00,58,0.00
2011,07,22,00,59,0.00
2011,07,22,01,00,0.00
2011,07,22,01,01,0.00
2011,07,22,01,02,0.00
2011,07,22,01,03,0.00
2011,07,22,01,04,0.00
2011,07,22,01,05,0.00
2011,07,22,01,06,0.00
2011,07,22,01,07,0.00
2011,07,22,01,08,0.00
2011,07,22,01,09,0.00
2011,07,22,01,10,0.00
2011,07,22,01,11,0.00
2011,07,22,01,12,0.00
2011,07,22,01,13,0.00
2011,07,22,01,14,0.00
2011,07,22,01,15,0.00
2011,07,22,01,16,0.00
2011,07,22,01,17,0.00
2011,07,22,01,18,0.00
2011,07,22,01,19,0.00
2011,07,22,01,20,0.00
2011,07,22,01,21,0.00
2011,07,22,01,22,0.00
2011,07,22,01,23,0.00
2011,07,22,01,24,0.00
2011,07,22,01,25,0.00
2011,07,22,01,26,0.00
2011,07,22,01,27,0.00
2011,07,22,01,28,0.00
2011,07,22,01,29,0.00
2011,07,22,01,30,0.00
2011,07,22,01,31,0.00
2011,07,22,01,32,0.00
2011,07,22,01,33,0.00
2011,07,22,01,34,0.00
2011,07,22,01,35,0.00
2011,07,22,01,36,0.00
2011,07,22,01,37,0.00
2011,07,22,01,38,0.00
2011,07,22,01,39,0.00
2011,07,22,01,40,0.00
2011,07,22,01,41,0.00
2011,07,22,01,42,0.00
2011,07,22,01,43,0.00
2011,07,22,01,44,0.00
2011,07,22,01,45,0.00
2011,07,22,01,46,0.00
2011,07,22,01,47,0.00
2011,07,22,01,48,0.00
2011,07,22,01,49,0.00
2011,07,22,01,50,0.00
2011,07,22,01,51,0.00
2011,07,22,01,52,0.00
2011,07,22,01,53,0.00
2011,07,22,01,54,0.00
2011,07,22,01,55,0.00
2011,07,22,01,56,0.00
2011,07,22,01,57,0.00
2011,07,22,01,58,0.00
2011,07,22,01,59,0.00
2011,07,22,02,00,0.00
2011,07,22,02,01,0.00
2011,07,22,02,02,0.00
2011,07,22,02,03,0.00
2011,07,22,02,04,0.00
2011,07,22,02,05,0.00
2011,07,22,02,06,0.00
2011,07,22,02,07,0.00
2011,07,22,02,08,0.00
2011,07,22,02,09,0.00
2011,07,22,02,10,0.00
2011,07,22,02,11,0.00
2011,07,22,02,12,0.00
2011,07,22,02,13,0.00
2011,07,22,02,14,0.00
2011,07,22,02,15,0.00
2011,07,22,02,16,0.00
2011,07,22,02,17,0.00
2011,07,22,02,18,0.00
2011,07,22,02,19,0.00
2011,07,22,02,20,0.00
2011,07,22,02,21,0.00
2011,07,22,02,22,0.00
2011,07,22,02,23,0.00
2011,07,22,02,24,0.00
2011,07,22,02,25,0.00
2011,07,22,02,26,0.00
2011,07,22,02,27,0.00
2011,07,22,02,28,0.00
2011,07,22,02,29,0.00
2011,07,22,02,30,0.00
2011,07,22,02,31,0.00
2011,07,22,02,32,0.00
2011,07,22,02,33,0.00
2011,07,22,02,34,0.00
2011,07,22,02,35,0.00
2011,07,22,02,36,0.00
2011,07,22,02,37,0.00
2011,07,22,02,38,0.00
2011,07,22,02,39,0.00
2011,07,22,02,40,0.00
2011,07,22,02,41,0.00
2011,07,22,02,42,0.00
2011,07,22,02,43,0.00
2011,07,22,02,44,0.00
2011,07,22,02,45,0.00
2011,07,22,02,46,0.00
2011,07,22,02,47,0.00
2011,07,22,02,48,0.00
2011,07,22,02,49,0.00
2011,07,22,02,50,0.00
2011,07,22,02,51,0.00
2011,07,22,02,52,0.00
2011,07,22,02,53,0.00
2011,07,22,02,54,0.00
2011,07,22,02,55,0.00
2011,07,22,02,56,0.00
2011,07,22,02,57,0.00
2011,07,22,02,58,0.00
2011,07,22,02,59,0.00
2011,07,22,03,00,0.00
2011,07,22,03,01,0.00
2011,07,22,03,02,0.00
2011,07,22,03,03,0.00
2011,07,22,03,04,0.00
2011,07,22,03,05,0.00
2011,07,22,03,06,0.00
2011,07,22,03,07,0.00
2011,07,22,03,08,0.00
2011,07,22,03,09,0.00
2011,07,22,03,10,0.00
2011,07,22,03,11,0.00
2011,07,22,03,12,0.00
2011,07,22,03,13,0.00
2011,07,22,03,14,0.00
2011,07,22,03,15,0.00
2011,07,22,03,16,0.00
2011,07,22,03,17,0.00
2011,07,22,03,18,0.00
2011,07,22,03,19,0.00
2011,07,22,03,20,0.00
2011,07,22,03,21,0.00
2011,07,22,03,22,0.00
2011,07,22,03,23,0.00
2011,07,22,03,24,0.00
2011,07,22,03,25,0.00
2011,07,22,03,26,0.00
2011,07,22,03,27,0.00
2011,07,22,03,28,0.00
2011,07,22,03,29,0.00
2011,07,22,03,30,0.00
2011,07,22,03,31,0.00
2011,07,22,03,32,0.00
2011,07,22,03,33,0.00
2011,07,22,03,34,0.00
2011,07,22,03,35,0.00
2011,07,22,03,36,0.00
2011,07,22,03,37,0.00
2011,07,22,03,38,0.00
2011,07,22,03,39,0.00
2011,07,22,03,40,0.00
2011,07,22,03,41,0.00
2011,07,22,03,42,0.00
2011,07,22,03,43,0.00
2011,07,22,03,44,0.00
2011,07,22,03,45,0.00
2011,07,22,03,46,0.00
2011,07,22,03,47,0.00
2011,07,22,03,48,0.00
2011,07,22,03,49,0.00
2011,07,22,03,50,0.00
2011,07,22,03,51,0.00
2011,07,22,03,52,0.00
2011,07,22,03,53,0.00
2011,07,22,03,54,0.00
2011,07,22,03,55,0.00
2011,07,22,03,56,0.00
2011,07,22,03,57,0.00
2011,07,22,03,58,0.00
2011,07,22,03,59,0.00
2011,07,22,04,00,0.00
2011,07,22,04,01,0.00
2011,07,22,04,02,0.00
2011,07,22,04,03,0.00
2011,07,22,04,04,0.00
2011,07,22,04,05,0.00
2011,07,22,04,06,0.00
2011,07,22,04,07,0.00
2011,07,22,04,08,0.00
2011,07,22,04,09,0.00
2011,07,22,04,10,0.00
2011,07,22,04,11,0.00
2011,07,22,04,12,0.00
2011,07,22,04,13,0.00
2011,07,22,04,14,0.00
2011,07,22,04,15,0.00
2011,07,22,04,16,0.00
2011,07,22,04,17,0.00
2011,07,22,04,18,0.00
2011,07,22,04,19,0.00
2011,07,22,04,20,0.00
2011,07,22,04,21,0.00
2011,07,22,04,22,0.00
2011,07,22,04,23,0.00
2011,07,22,04,24,0.00
2011,07,22,04,25,0.00
2011,07,22,04,26,0.00
2011,07,22,04,27,0.00
2011,07,22,04,28,0.00
2011,07,22,04,29,0.00
2011,07,22,04,30,0.00
2011,07,22,04,31,0.00
2011,07,22,04,32,0.00
2011,07,22,04,33,0.00
2011,07,22,04,34,0.00
2011,07,22,04,35,0.00
2011,07,22,04,36,0.00
2011,07,22,04,37,0.00
2011,07,22,04,38,0.00
2011,07,22,04,39,0.00
2011,07,22,04,40,0.00
2011,07,22,04,41,0.00
2011,07,22,04,42,0.00
2011,07,22,04,43,0.00
2011,07,22,04,44,0.00
2011,07,22,04,45,0.00
2011,07,22,04,46,0.00
2011,07,22,04,47,0.00
2011,07,22,04,48,0.00
2011,07,22,04,49,0.00
2011,07,22,04,50,0.00
2011,07,22,04,51,0.00
2011,07,22,04,52,0.00
2011,07,22,04,53,0.00
2011,07,22,04,54,0.00
2011,07,22,04,55,0.00
2011,07,22,04,56,0.00
2011,07,22,04,57,0.00
2011,07,22,04,58,0.00
2011,07,22,04,59,0.00
2011,07,22,05,00,0.00
2011,07,22,05,01,0.00
2011,07,22,05,02,0.00
2011,07,22,05,03,0.00
2011,07,22,05,04,0.00
2011,07,22,05,05,0.00
2011,07,22,05,06,0.00
2011,07,22,05,07,0.00
2011,07,22,05,08,0.00
2011,07,22,05,09,0.00
2011,07,22,05,10,0.00
2011,07,22,05,11,0.00
2011,07,22,05,12,0.00
2011,07,22,05,13,0.00
2011,07,22,05,14,0.00
2011,07,22,05,15,0.00
2011,07,22,05,16,0.00
2011,07,22,05,17,0.00
2011,07,22,05,18,0.00
2011,07,22,05,19,0.00
2011,07,22,05,20,0.00
2011,07,22,05,21,0.00
2011,07,22,05,22,0.00
2011,07,22,05,23,0.00
2011,07,22,05,24,0.00
2011,07,22,05,25,0.00
2011,07,22,05,26,0.00
2011,07,22,05,27,0.00
2011,07,22,05,28,0.00
2011,07,22,05,29,0.00
2011,07,22,05,30,0.00
2011,07,22,05,31,0.00
2011,07,22,05,32,0.00
2011,07,22,05,33,0.00
2011,07,22,05,34,0.00
2011,07,22,05,35,0.00
2011,07,22,05,36,0.00
2011,07,22,05,37,0.00
2011,07,22,05,38,2.50
2011,07,22,05,39,5.00
2011,07,22,05,40,5.00
2011,07,22,05,41,5.00
2011,07,22,05,42,5.20
2011,07,22,05,43,7.00
2011,07,22,05,44,7.00
2011,07,22,05,45,7.00
2011,07,22,05,46,8.30
2011,07,22,05,47,9.00
2011,07,22,05,48,9.00
2011,07,22,05,49,9.30
2011,07,22,05,50,11.00
2011,07,22,05,51,11.00
2011,07,22,05,52,11.00
2011,07,22,05,53,11.60
2011,07,22,05,54,12.00
2011,07,22,05,55,12.00
2011,07,22,05,56,12.30
2011,07,22,05,57,14.00
2011,07,22,05,58,14.80
2011,07,22,05,59,16.00
2011,07,22,06,00,18.00
2011,07,22,06,01,24.50
2011,07,22,06,02,32.00
2011,07,22,06,03,37.00
2011,07,22,06,04,37.50
2011,07,22,06,05,39.40
2011,07,22,06,06,41.00
2011,07,22,06,07,42.00
2011,07,22,06,08,45.00
2011,07,22,06,09,46.80
2011,07,22,06,10,49.00
2011,07,22,06,11,49.50
2011,07,22,06,12,52.20
2011,07,22,06,13,55.00
2011,07,22,06,14,57.30
2011,07,22,06,15,58.00
2011,07,22,06,16,61.60
2011,07,22,06,17,63.40
2011,07,22,06,18,67.50
2011,07,22,06,19,69.30
2011,07,22,06,20,71.00
2011,07,22,06,21,73.20
2011,07,22,06,22,76.20
2011,07,22,06,23,78.70
2011,07,22,06,24,81.40
2011,07,22,06,25,84.50
2011,07,22,06,26,87.50
2011,07,22,06,27,91.50
2011,07,22,06,28,94.30
2011,07,22,06,29,95.00
2011,07,22,06,30,99.20
2011,07,22,06,31,102.00
2011,07,22,06,32,102.70
2011,07,22,06,33,105.70
2011,07,22,06,34,108.00
2011,07,22,06,35,111.70
2011,07,22,06,36,113.70
2011,07,22,06,37,114.00
2011,07,22,06,38,118.30
2011,07,22,06,39,120.20
2011,07,22,06,40,121.00
2011,07,22,06,41,124.00
2011,07,22,06,42,128.90
2011,07,22,06,43,134.00
2011,07,22,06,44,140.40
2011,07,22,06,45,141.90
2011,07,22,06,46,141.30
2011,07,22,06,47,141.60
2011,07,22,06,48,140.00
2011,07,22,06,49,140.90
2011,07,22,06,50,143.60
2011,07,22,06,51,147.40
2011,07,22,06,52,149.80
2011,07,22,06,53,160.50
2011,07,22,06,54,161.30
2011,07,22,06,55,160.00
2011,07,22,06,56,160.00
2011,07,22,06,57,153.20
2011,07,22,06,58,155.50
2011,07,22,06,59,158.00
2011,07,22,07,00,159.00
2011,07,22,07,01,162.40
2011,07,22,07,02,164.90
2011,07,22,07,03,167.00
2011,07,22,07,04,160.20
2011,07,22,07,05,149.90
2011,07,22,07,06,170.60
2011,07,22,07,07,154.50
2011,07,22,07,08,171.40
2011,07,22,07,09,162.50
2011,07,22,07,10,142.20
2011,07,22,07,11,102.80
2011,07,22,07,12,80.70
2011,07,22,07,13,149.00
2011,07,22,07,14,157.70
2011,07,22,07,15,194.80
2011,07,22,07,16,181.60
2011,07,22,07,17,197.20
2011,07,22,07,18,236.00
2011,07,22,07,19,183.30
2011,07,22,07,20,151.90
2011,07,22,07,21,229.00
2011,07,22,07,22,229.00
2011,07,22,07,23,173.50
2011,07,22,07,24,95.90
2011,07,22,07,25,131.90
2011,07,22,07,26,130.00
2011,07,22,07,27,141.60
2011,07,22,07,28,215.90
2011,07,22,07,29,155.60
2011,07,22,07,30,171.50
2011,07,22,07,31,140.60
2011,07,22,07,32,123.00
2011,07,22,07,33,248.10
2011,07,22,07,34,240.70
2011,07,22,07,35,259.60
2011,07,22,07,36,272.00
2011,07,22,07,37,272.00
2011,07,22,07,38,292.40
2011,07,22,07,39,299.20
2011,07,22,07,40,290.70
2011,07,22,07,41,290.00
2011,07,22,07,42,289.20
2011,07,22,07,43,281.40
2011,07,22,07,44,271.00
2011,07,22,07,45,263.20
2011,07,22,07,46,226.50
2011,07,22,07,47,216.00
2011,07,22,07,48,260.20
2011,07,22,07,49,291.20
2011,07,22,07,50,295.70
2011,07,22,07,51,294.50
2011,07,22,07,52,296.50
2011,07,22,07,53,307.80
2011,07,22,07,54,314.40
2011,07,22,07,55,328.60
2011,07,22,07,56,338.80
2011,07,22,07,57,341.80
2011,07,22,07,58,343.00
2011,07,22,07,59,343.00
2011,07,22,08,00,362.50
2011,07,22,08,01,370.80
2011,07,22,08,02,364.30
2011,07,22,08,03,328.80
2011,07,22,08,04,409.00
2011,07,22,08,05,427.00
2011,07,22,08,06,434.00
2011,07,22,08,07,455.40
2011,07,22,08,08,464.00
2011,07,22,08,09,438.60
2011,07,22,08,10,295.00
2011,07,22,08,11,295.00
2011,07,22,08,12,295.00
2011,07,22,08,13,278.10
2011,07,22,08,14,257.00
2011,07,22,08,15,229.90
2011,07,22,08,16,195.10
2011,07,22,08,17,148.50
2011,07,22,08,18,134.60
2011,07,22,08,19,137.30
2011,07,22,08,20,151.20
2011,07,22,08,21,158.00
2011,07,22,08,22,162.20
2011,07,22,08,23,190.90
2011,07,22,08,24,264.00
2011,07,22,08,25,361.60
2011,07,22,08,26,508.00
2011,07,22,08,27,463.10
2011,07,22,08,28,443.50
2011,07,22,08,29,445.00
2011,07,22,08,30,413.80
2011,07,22,08,31,237.00
2011,07,22,08,32,231.40
2011,07,22,08,33,208.80
2011,07,22,08,34,178.60
2011,07,22,08,35,167.50
2011,07,22,08,36,167.00
2011,07,22,08,37,171.40
2011,07,22,08,38,219.50
2011,07,22,08,39,251.00
2011,07,22,08,40,251.00
2011,07,22,08,41,251.00
2011,07,22,08,42,251.00
2011,07,22,08,43,199.10
2011,07,22,08,44,179.00
2011,07,22,08,45,243.80
2011,07,22,08,46,448.90
2011,07,22,08,47,474.50
2011,07,22,08,48,487.80
2011,07,22,08,49,492.00
2011,07,22,08,50,492.00
2011,07,22,08,51,492.20
2011,07,22,08,52,499.20
2011,07,22,08,53,513.00
2011,07,22,08,54,513.00
2011,07,22,08,55,539.70
2011,07,22,08,56,495.50
2011,07,22,08,57,476.00
2011,07,22,08,58,440.70
2011,07,22,08,59,234.80
2011,07,22,09,00,257.30
2011,07,22,09,01,313.00
2011,07,22,09,02,303.00
2011,07,22,09,03,282.00
2011,07,22,09,04,363.90
2011,07,22,09,05,290.00
2011,07,22,09,06,273.20
2011,07,22,09,07,223.00
2011,07,22,09,08,231.00
2011,07,22,09,09,249.80
2011,07,22,09,10,266.00
2011,07,22,09,11,276.60
2011,07,22,09,12,265.70
2011,07,22,09,13,280.00
2011,07,22,09,14,278.80
2011,07,22,09,15,228.50
2011,07,22,09,16,201.10
2011,07,22,09,17,180.20
2011,07,22,09,18,171.70
2011,07,22,09,19,170.00
2011,07,22,09,20,154.40
2011,07,22,09,21,184.10
2011,07,22,09,22,229.00
2011,07,22,09,23,446.10
2011,07,22,09,24,583.40
2011,07,22,09,25,630.40
2011,07,22,09,26,666.00
2011,07,22,09,27,666.00
2011,07,22,09,28,518.00
2011,07,22,09,29,243.00
2011,07,22,09,30,243.00
2011,07,22,09,31,342.00
2011,07,22,09,32,373.00
2011,07,22,09,33,360.30
2011,07,22,09,34,446.00
2011,07,22,09,35,446.00
2011,07,22,09,36,446.00
2011,07,22,09,37,446.00
2011,07,22,09,38,293.50
2011,07,22,09,39,316.10
2011,07,22,09,40,329.00
2011,07,22,09,41,329.00
2011,07,22,09,42,329.00
2011,07,22,09,43,329.00
2011,07,22,09,44,329.00
2011,07,22,09,45,329.00
2011,07,22,09,46,329.00
2011,07,22,09,47,319.50
2011,07,22,09,48,230.80
2011,07,22,09,49,220.60
2011,07,22,09,50,220.00
2011,07,22,09,51,236.90
2011,07,22,09,52,267.00
2011,07,22,09,53,244.20
2011,07,22,09,54,225.10
2011,07,22,09,55,258.00
2011,07,22,09,56,298.80
2011,07,22,09,57,294.50
2011,07,22,09,58,334.50
2011,07,22,09,59,433.30
2011,07,22,10,00,457.00
2011,07,22,10,01,265.00
2011,07,22,10,02,399.50
2011,07,22,10,03,807.80
2011,07,22,10,04,816.00
2011,07,22,10,05,448.10
2011,07,22,10,06,250.00
2011,07,22,10,07,250.00
2011,07,22,10,08,250.00
2011,07,22,10,09,250.00
2011,07,22,10,10,250.00
2011,07,22,10,11,486.70
2011,07,22,10,12,747.00
2011,07,22,10,13,752.20
2011,07,22,10,14,728.50
2011,07,22,10,15,721.00
2011,07,22,10,16,724.40
2011,07,22,10,17,739.30
2011,07,22,10,18,751.50
2011,07,22,10,19,745.90
2011,07,22,10,20,742.00
2011,07,22,10,21,746.50
2011,07,22,10,22,745.50
2011,07,22,10,23,730.40
2011,07,22,10,24,713.90
2011,07,22,10,25,718.60
2011,07,22,10,26,724.00
2011,07,22,10,27,710.90
2011,07,22,10,28,756.70
2011,07,22,10,29,746.10
2011,07,22,10,30,737.80
2011,07,22,10,31,736.30
2011,07,22,10,32,734.00
2011,07,22,10,33,740.20
2011,07,22,10,34,745.00
2011,07,22,10,35,745.00
2011,07,22,10,36,745.00
2011,07,22,10,37,749.50
2011,07,22,10,38,766.80
2011,07,22,10,39,763.00
2011,07,22,10,40,753.00
2011,07,22,10,41,769.80
2011,07,22,10,42,779.20
2011,07,22,10,43,767.20
2011,07,22,10,44,761.80
2011,07,22,10,45,756.40
2011,07,22,10,46,751.50
2011,07,22,10,47,747.70
2011,07,22,10,48,748.50
2011,07,22,10,49,749.00
2011,07,22,10,50,704.00
2011,07,22,10,51,760.50
2011,07,22,10,52,759.80
2011,07,22,10,53,763.20
2011,07,22,10,54,769.40
2011,07,22,10,55,784.80
2011,07,22,10,56,820.50
2011,07,22,10,57,837.80
2011,07,22,10,58,858.90
2011,07,22,10,59,863.20
2011,07,22,11,00,888.70
2011,07,22,11,01,885.80
2011,07,22,11,02,852.20
2011,07,22,11,03,840.00
2011,07,22,11,04,656.00
2011,07,22,11,05,656.00
2011,07,22,11,06,745.50
2011,07,22,11,07,891.00
2011,07,22,11,08,891.00
2011,07,22,11,09,855.80
2011,07,22,11,10,834.60
2011,07,22,11,11,832.30
2011,07,22,11,12,828.90
2011,07,22,11,13,837.00
2011,07,22,11,14,846.00
2011,07,22,11,15,827.40
2011,07,22,11,16,826.50
2011,07,22,11,17,821.90
2011,07,22,11,18,815.20
2011,07,22,11,19,810.00
2011,07,22,11,20,814.50
2011,07,22,11,21,823.00
2011,07,22,11,22,823.00
2011,07,22,11,23,872.50
2011,07,22,11,24,908.00
2011,07,22,11,25,919.20
2011,07,22,11,26,946.00
2011,07,22,11,27,946.00
2011,07,22,11,28,967.30
2011,07,22,11,29,991.00
2011,07,22,11,30,991.00
2011,07,22,11,31,991.00
2011,07,22,11,32,991.00
2011,07,22,11,33,991.00
2011,07,22,11,34,737.40
2011,07,22,11,35,357.00
2011,07,22,11,36,357.00
2011,07,22,11,37,357.00
2011,07,22,11,38,885.30
2011,07,22,11,39,944.00
2011,07,22,11,40,926.40
2011,07,22,11,41,877.00
2011,07,22,11,42,877.00
2011,07,22,11,43,877.00
2011,07,22,11,44,877.00
2011,07,22,11,45,877.00
2011,07,22,11,46,876.80
2011,07,22,11,47,872.50
2011,07,22,11,48,858.30
2011,07,22,11,49,846.00
2011,07,22,11,50,853.80
2011,07,22,11,51,840.80
2011,07,22,11,52,849.40
2011,07,22,11,53,886.00
2011,07,22,11,54,915.80
2011,07,22,11,55,921.00
2011,07,22,11,56,921.00
2011,07,22,11,57,584.30
2011,07,22,11,58,403.00
2011,07,22,11,59,907.50
2011,07,22,12,00,900.30
2011,07,22,12,01,873.50
2011,07,22,12,02,876.60
2011,07,22,12,03,884.00
2011,07,22,12,04,884.00
2011,07,22,12,05,884.00
2011,07,22,12,06,955.50
2011,07,22,12,07,1032.10
2011,07,22,12,08,925.20
2011,07,22,12,09,887.50
2011,07,22,12,10,935.00
2011,07,22,12,11,914.00
2011,07,22,12,12,907.00
2011,07,22,12,13,744.10
2011,07,22,12,14,738.00
2011,07,22,12,15,776.30
2011,07,22,12,16,876.20
2011,07,22,12,17,881.50
2011,07,22,12,18,873.20
2011,07,22,12,19,879.00
2011,07,22,12,20,922.80
2011,07,22,12,21,930.00
2011,07,22,12,22,930.00
2011,07,22,12,23,930.00
2011,07,22,12,24,910.50
2011,07,22,12,25,885.20
2011,07,22,12,26,882.00
2011,07,22,12,27,920.70
2011,07,22,12,28,923.00
2011,07,22,12,29,923.00
2011,07,22,12,30,923.00
2011,07,22,12,31,914.20
2011,07,22,12,32,907.00
2011,07,22,12,33,907.00
2011,07,22,12,34,907.00
2011,07,22,12,35,995.00
2011,07,22,12,36,995.00
2011,07,22,12,37,995.00
2011,07,22,12,38,995.00
2011,07,22,12,39,995.00
2011,07,22,12,40,995.00
2011,07,22,12,41,995.00
2011,07,22,12,42,903.20
2011,07,22,12,43,876.80
2011,07,22,12,44,863.80
2011,07,22,12,45,868.00
2011,07,22,12,46,868.00
2011,07,22,12,47,884.00
2011,07,22,12,48,908.00
2011,07,22,12,49,920.30
2011,07,22,12,50,981.90
2011,07,22,12,51,911.00
2011,07,22,12,52,911.00
2011,07,22,12,53,528.80
2011,07,22,12,54,323.00
2011,07,22,12,55,323.00
2011,07,22,12,56,1002.00
2011,07,22,12,57,1002.00
2011,07,22,12,58,986.40
2011,07,22,12,59,965.00
2011,07,22,13,00,978.40
2011,07,22,13,01,968.90
2011,07,22,13,02,962.00
2011,07,22,13,03,962.00
2011,07,22,13,04,962.00
2011,07,22,13,05,962.00
2011,07,22,13,06,962.00
2011,07,22,13,07,496.60
2011,07,22,13,08,225.00
2011,07,22,13,09,218.00
2011,07,22,13,10,218.00
2011,07,22,13,11,386.80
2011,07,22,13,12,890.20
2011,07,22,13,13,887.00
2011,07,22,13,14,888.00
2011,07,22,13,15,893.00
2011,07,22,13,16,897.50
2011,07,22,13,17,898.90
2011,07,22,13,18,904.00
2011,07,22,13,19,907.70
2011,07,22,13,20,916.50
2011,07,22,13,21,919.00
2011,07,22,13,22,919.00
2011,07,22,13,23,914.50
2011,07,22,13,24,910.00
2011,07,22,13,25,905.20
2011,07,22,13,26,910.20
2011,07,22,13,27,911.50
2011,07,22,13,28,915.20
2011,07,22,13,29,909.80
2011,07,22,13,30,904.40
2011,07,22,13,31,902.00
2011,07,22,13,32,899.80
2011,07,22,13,33,893.00
2011,07,22,13,34,891.90
2011,07,22,13,35,891.00
2011,07,22,13,36,891.00
2011,07,22,13,37,892.80
2011,07,22,13,38,897.70
2011,07,22,13,39,897.00
2011,07,22,13,40,900.00
2011,07,22,13,41,900.00
2011,07,22,13,42,905.30
2011,07,22,13,43,907.50
2011,07,22,13,44,904.30
2011,07,22,13,45,905.90
2011,07,22,13,46,914.60
2011,07,22,13,47,926.00
2011,07,22,13,48,934.00
2011,07,22,13,49,940.70
2011,07,22,13,50,939.20
2011,07,22,13,51,943.50
2011,07,22,13,52,952.30
2011,07,22,13,53,957.10
2011,07,22,13,54,944.80
2011,07,22,13,55,937.00
2011,07,22,13,56,920.80
2011,07,22,13,57,908.20
2011,07,22,13,58,905.20
2011,07,22,13,59,904.20
2011,07,22,14,00,898.80
2011,07,22,14,01,892.60
2011,07,22,14,02,889.00
2011,07,22,14,03,887.10
2011,07,22,14,04,887.50
2011,07,22,14,05,884.60
2011,07,22,14,06,884.00
2011,07,22,14,07,886.80
2011,07,22,14,08,895.40
2011,07,22,14,09,896.00
2011,07,22,14,10,897.30
2011,07,22,14,11,901.00
2011,07,22,14,12,904.70
2011,07,22,14,13,922.20
2011,07,22,14,14,942.80
2011,07,22,14,15,951.00
2011,07,22,14,16,793.00
2011,07,22,14,17,696.10
2011,07,22,14,18,729.00
2011,07,22,14,19,729.00
2011,07,22,14,20,1077.40
2011,07,22,14,21,1114.80
2011,07,22,14,22,1091.80
2011,07,22,14,23,1063.00
2011,07,22,14,24,1063.00
2011,07,22,14,25,1003.80
2011,07,22,14,26,984.00
2011,07,22,14,27,991.30
2011,07,22,14,28,949.00
2011,07,22,14,29,949.00
2011,07,22,14,30,949.00
2011,07,22,14,31,1072.50
2011,07,22,14,32,1139.00
2011,07,22,14,33,1139.00
2011,07,22,14,34,1139.00
2011,07,22,14,35,986.90
2011,07,22,14,36,561.00
2011,07,22,14,37,561.00
2011,07,22,14,38,561.00
2011,07,22,14,39,561.00
2011,07,22,14,40,561.00
2011,07,22,14,41,623.60
2011,07,22,14,42,1020.30
2011,07,22,14,43,1021.00
2011,07,22,14,44,1021.00
2011,07,22,14,45,1014.80
2011,07,22,14,46,1035.30
2011,07,22,14,47,1069.70
2011,07,22,14,48,1074.00
2011,07,22,14,49,1074.00
2011,07,22,14,50,1074.00
2011,07,22,14,51,1074.00
2011,07,22,14,52,995.30
2011,07,22,14,53,939.70
2011,07,22,14,54,934.60
2011,07,22,14,55,925.20
2011,07,22,14,56,923.80
2011,07,22,14,57,906.40
2011,07,22,14,58,900.50
2011,07,22,14,59,934.30
2011,07,22,15,00,905.00
2011,07,22,15,01,918.20
2011,07,22,15,02,912.00
2011,07,22,15,03,909.50
2011,07,22,15,04,902.00
2011,07,22,15,05,902.00
2011,07,22,15,06,882.00
2011,07,22,15,07,813.80
2011,07,22,15,08,827.70
2011,07,22,15,09,927.20
2011,07,22,15,10,923.00
2011,07,22,15,11,876.10
2011,07,22,15,12,757.40
2011,07,22,15,13,710.00
2011,07,22,15,14,710.00
2011,07,22,15,15,872.90
2011,07,22,15,16,912.00
2011,07,22,15,17,919.10
2011,07,22,15,18,919.20
2011,07,22,15,19,916.50
2011,07,22,15,20,951.20
2011,07,22,15,21,954.00
2011,07,22,15,22,916.90
2011,07,22,15,23,813.00
2011,07,22,15,24,258.00
2011,07,22,15,25,258.00
2011,07,22,15,26,260.10
2011,07,22,15,27,262.00
2011,07,22,15,28,262.00
2011,07,22,15,29,260.20
2011,07,22,15,30,262.20
2011,07,22,15,31,264.80
2011,07,22,15,32,267.00
2011,07,22,15,33,269.00
2011,07,22,15,34,271.00
2011,07,22,15,35,271.00
2011,07,22,15,36,271.00
2011,07,22,15,37,272.60
2011,07,22,15,38,276.00
2011,07,22,15,39,279.60
2011,07,22,15,40,286.50
2011,07,22,15,41,290.60
2011,07,22,15,42,294.20
2011,07,22,15,43,296.80
2011,07,22,15,44,302.70
2011,07,22,15,45,311.10
2011,07,22,15,46,318.00
2011,07,22,15,47,318.00
2011,07,22,15,48,341.40
2011,07,22,15,49,355.00
2011,07,22,15,50,392.40
2011,07,22,15,51,431.50
2011,07,22,15,52,445.20
2011,07,22,15,53,445.00
2011,07,22,15,54,450.80
2011,07,22,15,55,454.00
2011,07,22,15,56,457.80
2011,07,22,15,57,463.50
2011,07,22,15,58,502.70
2011,07,22,15,59,501.50
2011,07,22,16,00,503.00
2011,07,22,16,01,503.00
2011,07,22,16,02,529.00
2011,07,22,16,03,567.00
2011,07,22,16,04,557.00
2011,07,22,16,05,531.90
2011,07,22,16,06,520.00
2011,07,22,16,07,505.30
2011,07,22,16,08,476.70
2011,07,22,16,09,463.90
2011,07,22,16,10,452.20
2011,07,22,16,11,446.40
2011,07,22,16,12,455.00
2011,07,22,16,13,461.20
2011,07,22,16,14,492.20
2011,07,22,16,15,532.50
2011,07,22,16,16,554.00
2011,07,22,16,17,535.20
2011,07,22,16,18,596.20
2011,07,22,16,19,508.00
2011,07,22,16,20,508.00
2011,07,22,16,21,531.90
2011,07,22,16,22,553.50
2011,07,22,16,23,563.10
2011,07,22,16,24,605.20
2011,07,22,16,25,629.20
2011,07,22,16,26,613.30
2011,07,22,16,27,513.00
2011,07,22,16,28,584.20
2011,07,22,16,29,700.00
2011,07,22,16,30,670.30
2011,07,22,16,31,727.00
2011,07,22,16,32,747.00
2011,07,22,16,33,724.80
2011,07,22,16,34,599.00
2011,07,22,16,35,682.20
2011,07,22,16,36,807.00
2011,07,22,16,37,639.00
2011,07,22,16,38,455.00
2011,07,22,16,39,440.00
2011,07,22,16,40,434.70
2011,07,22,16,41,398.40
2011,07,22,16,42,408.20
2011,07,22,16,43,405.50
2011,07,22,16,44,440.80
2011,07,22,16,45,476.00
2011,07,22,16,46,370.70
2011,07,22,16,47,359.00
2011,07,22,16,48,359.00
2011,07,22,16,49,359.00
2011,07,22,16,50,359.00
2011,07,22,16,51,591.00
2011,07,22,16,52,744.00
2011,07,22,16,53,717.20
2011,07,22,16,54,698.50
2011,07,22,16,55,684.00
2011,07,22,16,56,675.60
2011,07,22,16,57,658.60
2011,07,22,16,58,653.40
2011,07,22,16,59,648.40
2011,07,22,17,00,641.00
2011,07,22,17,01,634.10
2011,07,22,17,02,628.20
2011,07,22,17,03,624.60
2011,07,22,17,04,620.60
2011,07,22,17,05,616.40